This demonstration page uses our WeatherBlox Daily Observations layout. Learn more.

Left ArrowRight Arrow

39.51506, -84.39828

Hourly Observations for June 16, 2015

Temp ( °F °C ) Dew Point ( °F °C ) Humidity (%) Winds ( mph kmh ) Pressure ( in mb ) Visibility ( mi km ) Precip ( " mm )
12:15 am 00:15 Cloudy with Light Rain 79 26.3 70 21.1 73 73 SW 14 22 30 1016 7 11.26538 N/A
12:35 am 00:35 Partly Cloudy 77 25.1 71 21.6 81 81 SW 8 13 29.97 1015 10 16.0934 N/A
12:55 am 00:55 Mostly Cloudy 77 25.1 72 22 83 83 SW 7 11 29.97 1015 10 16.0934 N/A
1:15 am 01:15 Cloudy 77 25.1 72 22.1 83 83 SW 6 9 29.97 1015 10 16.0934 N/A
1:35 am 01:35 Mostly Cloudy 77 25.1 72 22 83 83 SW 6 9 29.97 1015 10 16.0934 N/A
1:55 am 01:55 Partly Cloudy 77 25.1 72 22 83 83 SW 6 9 29.97 1015 10 16.0934 N/A
2:15 am 02:15 Mostly Cloudy 77 25.1 72 22.1 83 83 SW 6 9 29.97 1015 10 16.0934 N/A
2:35 am 02:35 Cloudy 77 25.1 70 21.2 79 79 NW 13 20 30 1016 10 16.0934 N/A
2:55 am 02:55 Cloudy with Heavy Rain 74 23.6 69 20.5 83 83 WNW 17 28 30 1016 5 8.0467 N/A
3:15 am 03:15 Cloudy with Heavy Rain 74 23.6 70 21.2 86 86 WNW 13 20 30 1016 4 6.43736 N/A
3:35 am 03:35 Cloudy with Heavy Rain 74 23.6 70 21.2 86 86 N N/A 30 1016 4 6.43736 N/A
3:55 am 03:55 Cloudy with Heavy Rain 74 23.6 70 21.3 87 87 SW 6 9 30 1016 3 4.82802 N/A
4:15 am 04:15 Cloudy with Light Rain 74 23.6 71 21.5 88 88 N N/A 30 1016 10 16.0934 N/A
4:35 am 04:35 Cloudy 74 23.6 71 21.5 88 88 SW 6 9 30 1016 10 16.0934 N/A
4:55 am 04:55 Cloudy with Heavy Rain 74 23.6 71 21.5 88 88 SW 7 11 30 1016 7 11.26538 N/A
5:15 am 05:15 Cloudy with Rain 74 23.6 71 21.5 88 88 SSW 6 9 30 1016 7 11.26538 N/A
5:35 am 05:35 Mostly Cloudy with Light Rain 74 23.6 71 21.6 89 89 SSW 7 11 30 1016 10 16.0934 N/A
5:55 am 05:55 Mostly Cloudy with Light Rain 74 23.6 71 21.6 89 89 SSW 7 11 30 1016 10 16.0934 N/A
6:15 am 06:15 Partly Cloudy with Light Rain 74 23.6 71 21.6 89 89 SW 7 11 30 1016 10 16.0934 N/A
6:35 am 06:35 Partly Cloudy 74 23.6 71 21.6 89 89 WSW 6 9 30 1016 10 16.0934 N/A
6:55 am 06:55 Mostly Cloudy with Light Rain 74 23.6 71 21.6 89 89 WSW 7 11 30.03 1017 10 16.0934 N/A
7:15 am 07:15 Partly Cloudy 74 23.6 71 21.6 89 89 SW 3 6 30.03 1017 10 16.0934 N/A
7:35 am 07:35 Mostly Cloudy 74 23.6 71 21.6 89 89 SW 7 11 30.03 1017 10 16.0934 N/A
7:55 am 07:55 Cloudy 74 23.6 71 21.6 89 89 WSW 7 11 30.03 1017 10 16.0934 N/A
8:15 am 08:15 Cloudy with Rain 74 23.6 71 21.6 89 89 SW 5 7 30.03 1017 7 11.26538 N/A
8:35 am 08:35 Cloudy with Drizzle 74 23.6 71 21.5 88 88 WSW 3 6 30.03 1017 5 8.0467 N/A
8:55 am 08:55 Cloudy with Drizzle 74 23.6 71 21.5 88 88 WSW 5 7 30.03 1017 3 4.82802 N/A
9:15 am 09:15 Cloudy 74 23.6 71 21.5 88 88 SW 3 6 30.06 1018 10 16.0934 N/A
9:35 am 09:35 Cloudy 75 23.8 71 21.7 88 88 SW 5 7 30.06 1018 10 16.0934 N/A
9:55 am 09:55 Cloudy 77 25.1 73 22.6 86 86 W 8 13 30.06 1018 10 16.0934 N/A
10:15 am 10:15 Mostly Cloudy 77 25.1 72 22.3 85 85 W 6 9 30.06 1018 10 16.0934 N/A
10:35 am 10:35 Partly Cloudy 79 25.9 73 22.6 82 82 W 8 13 30.06 1018 10 16.0934 N/A
10:55 am 10:55 Mostly Cloudy 80 26.5 73 22.6 79 79 W 7 11 30.06 1018 10 16.0934 N/A
11:15 am 11:15 Mostly Cloudy 80 26.5 71 21.9 76 76 WNW 6 9 30.06 1018 10 16.0934 N/A
11:35 am 11:35 Mostly Cloudy 80 26.5 73 22.5 79 79 NW 5 7 30.06 1018 10 16.0934 N/A
11:55 am 11:55 Cloudy 80 26.5 71 21.9 76 76 NW 7 11 30.06 1018 10 16.0934 N/A
12:15 pm 12:15 Cloudy 80 26.5 71 21.6 75 75 NW 7 11 30.09 1019 10 16.0934 N/A
12:35 pm 12:35 Cloudy 80 26.5 70 21 72 72 W 10 17 30.09 1019 10 16.0934 N/A
12:55 pm 12:55 Cloudy 80 26.7 70 20.9 71 71 WNW 7 11 30.06 1018 10 16.0934 N/A
1:15 pm 13:15 Mostly Cloudy 82 28 71 21.4 67 67 NW 7 11 30.06 1018 10 16.0934 N/A
1:35 pm 13:35 Mostly Cloudy 83 28.1 70 20.9 65 65 WNW 9 15 30.06 1018 10 16.0934 N/A
1:55 pm 13:55 Partly Cloudy 83 28.5 70 21 64 64 W 12 19 30.03 1017 10 16.0934 N/A
2:15 pm 14:15 Mostly Cloudy 83 28.1 70 21 65 65 NW 6 9 30.06 1018 10 16.0934 N/A
2:35 pm 14:35 Mostly Cloudy 83 28.5 69 20.7 63 63 WNW 9 15 30.03 1017 10 16.0934 N/A
2:55 pm 14:55 Mostly Cloudy 84 28.8 69 20.8 62 62 NNW 10 17 30.03 1017 10 16.0934 N/A
3:15 pm 15:15 Mostly Cloudy 83 28.1 70 20.9 65 65 NW 7 11 30.03 1017 10 16.0934 N/A
3:35 pm 15:35 Mostly Cloudy 82 27.6 69 20.5 65 65 N 15 24 30.06 1018 10 16.0934 N/A
3:55 pm 15:55 Cloudy 80 26.5 68 20.2 68 68 N 12 19 30.03 1017 10 16.0934 N/A
4:15 pm 16:15 Mostly Cloudy 81 27.2 69 20.6 67 67 N 5 7 30.03 1017 10 16.0934 N/A
4:35 pm 16:35 Partly Cloudy 81 27.2 68 20.1 65 65 N 7 11 30.03 1017 10 16.0934 N/A
4:55 pm 16:55 Sunny 81 27.3 69 20.4 66 66 NNW 6 9 30.03 1017 10 16.0934 N/A
5:15 pm 17:15 Mostly Cloudy 81 27.2 68 20.2 66 66 NNW 3 6 30.03 1017 10 16.0934 N/A
5:35 pm 17:35 Cloudy 81 27.2 69 20.3 66 66 N N/A 30.03 1017 10 16.0934 N/A
5:55 pm 17:55 Cloudy 80 26.8 69 20.8 70 70 N N/A 30.03 1017 10 16.0934 N/A
6:15 pm 18:15 Cloudy 81 27.2 70 20.9 69 69 N N/A 30.03 1017 10 16.0934 N/A
6:35 pm 18:35 Cloudy 81 27.2 69 20.5 67 67 N N/A 30.03 1017 10 16.0934 N/A
6:55 pm 18:55 Cloudy 81 27.2 69 20.8 68 68 N N/A 30.03 1017 10 16.0934 N/A
7:15 pm 19:15 Cloudy 81 27.2 70 20.9 69 69 N N/A 30.03 1017 10 16.0934 N/A
7:35 pm 19:35 Mostly Cloudy 81 27.4 69 20.5 66 66 N N/A 30.03 1017 10 16.0934 N/A
7:55 pm 19:55 Cloudy 81 27.2 71 21.4 71 71 N N/A 30.03 1017 10 16.0934 N/A
8:15 pm 20:15 Cloudy 81 27 71 21.4 71 71 N N/A 30.06 1018 10 16.0934 N/A
8:35 pm 20:35 Mostly Cloudy 80 26.5 71 21.9 76 76 N N/A 30.03 1017 10 16.0934 N/A
8:55 pm 20:55 Mostly Cloudy 80 26.4 74 23.4 84 84 N N/A 30.06 1018 10 16.0934 N/A
9:15 pm 21:15 Partly Cloudy 77 25.1 72 22.3 85 85 N N/A 30.06 1018 10 16.0934 N/A
9:35 pm 21:35 Partly Cloudy 77 25.1 73 22.7 87 87 N N/A 30.06 1018 10 16.0934 N/A
9:55 pm 21:55 Mostly Cloudy 77 25.1 72 22.3 85 85 N N/A 30.06 1018 10 16.0934 N/A
10:15 pm 22:15 Partly Cloudy 77 24.9 72 22.4 86 86 N N/A 30.06 1018 10 16.0934 N/A
10:35 pm 22:35 Clear 74 23.6 70 21.3 87 87 N N/A 30.09 1019 10 16.0934 N/A
10:55 pm 22:55 Clear 74 23.6 71 21.5 88 88 N N/A 30.09 1019 10 16.0934 N/A
11:15 pm 23:15 Partly Cloudy 74 23.6 71 21.6 89 89 ESE 3 6 30.09 1019 10 16.0934 N/A
11:35 pm 23:35 Cloudy 76 24.3 69 20.6 80 80 SE 6 9 30.09 1019 10 16.0934 N/A
11:55 pm 23:55 Cloudy 74 23.6 67 19.2 76 76 N N/A 30.09 1019 10 16.0934 N/A

Powered by AerisWeather